Temperature
9 10 10 10 10 10 10 10 10 10 10 10 10 10 10 10 10 10 10 10 10 10 10 10 10 10 10 10 10 10 10 11 11 11 11 11 11 10 10 10 10 10 9
9 9 9 10 10 10 10 10 10 10 10 10 10 10 10 10 10 10 10 10 10 10 10 10 10 10 10 10 10 10 10 10 10 10 10 10 10 10 10 10 10 10 9
8 8 9 9 9 9 9 9 9 9 9 9 10 9 9 9 9 9 9 9 9 9 9 10 10 10 10 9 10 10 10 10 10 10 10 10 10 10 10 10 9 9 9
8 8 8 8 9 9 9 9 9 9 9 9 9 9 9 9 9 9 9 9 9 9 9 9 9 9 9 9 9 9 9 9 9 9 9 9 10 10 9 9 9 9 9
8 8 8 8 8 8 8 8 8 8 8 8 8 8 8 8 9 9 9 9 9 8 9 9 9 9 9 9 9 9 9 9 9 9 9 9 9 9 9 9 9 9 9
7 7 7 7 7 7 8 8 8 7 7 8 8 8 8 8 8 8 8 8 8 8 8 8 8 8 8 8 8 8 8 8 8 8 9 9 9 9 9 8 8 8 8
7 7 7 7 7 7 7 7 7 7 7 7 7 7 8 8 8 8 8 8 8 8 8 8 8 8 8 8 8 8 8 8 8 8 8 8 8 8 8 8 8 8 8
7 6 6 6 6 6 6 6 6 6 6 6 6 6 6 7 7 7 7 7 7 7 7 7 7 7 7 7 7 7 7 7 7 7 8 8 8 8 8 8 7 7 7
6 6 6 6 6 6 6 6 6 5 5 5 5 5 5 5 6 6 7 7 7 7 7 7 7 7 7 7 7 7 7 7 7 7 7 7 7 7 7 7 7 7 7
6 6 6 6 5 5 5 5 5 5 5 5 5 5 5 5 4 5 6 6 6 6 6 6 6 6 6 6 6 6 6 6 6 6 7 7 7 7 7 7 7 7 7
5 5 5 5 5 5 5 5 5 4 4 4 4 4 4 4 4 4 4 5 5 6 6 6 6 6 6 6 6 6 6 6 6 6 6 6 6 6 6 7 6 6 6
5 5 5 5 5 5 4 4 4 4 4 4 4 4 4 4 4 4 4 4 4 5 5 5 5 5 5 5 5 5 5 6 6 6 6 6 6 6 6 6 6 6 6
4 4 4 4 4 4 4 4 4 4 4 4 4 4 4 4 4 4 4 4 4 4 4 5 5 5 5 5 5 5 5 5 5 5 5 5 5 5 5 5 5 5 5
4 4 4 4 4 4 3 3 4 3 3 3 3 3 3 4 3 4 4 3 3 3 4 4 4 4 4 4 4 4 4 5 5 5 5 5 5 5 5 5 5 5 5
3 3 3 3 3 3 3 3 3 3 3 3 3 3 3 3 3 3 3 3 3 3 3 3 3 4 4 4 4 4 4 4 4 4 4 4 4 4 5 4 4 4 4
3 3 3 3 3 3 3 3 3 3 3 3 3 3 3 3 3 3 3 3 3 2 2 3 3 3 3 3 3 3 4 4 4 4 4 4 4 4 4 4 4 4 4
3 3 3 2 2 2 3 2 2 2 2 3 3 3 3 3 3 3 3 3 2 2 2 2 3 3 3 3 3 3 3 4 4 3 3 3 3 3 3 3 3 3 3
2 2 2 2 2 2 2 2 2 2 2 2 2 2 2 2 2 2 2 2 2 2 2 2 2 3 3 3 3 3 3 3 3 3 3 3 3 3 3 3 3 3 3
2 2 2 2 2 2 2 2 2 2 2 2 2 2 2 2 2 2 2 2 2 2 2 2 2 2 2 2 2 2 2 2 2 2 2 2 2 2 2 2 2 2 2
2 2 1 1 1 1 1 1 1 1 1 1 1 1 1 1 1 1 1 2 2 2 2 2 1 1 1 1 1 1 2 2 2 2 2 2 2 2 2 2 2 2 2
2 1 1 1 1 1 1 1 1 1 1 1 1 1 1 1 1 1 1 1 1 1 1 1 1 1 1 1 1 0 0 1 1 1 1 1 1 2 2 1 1 1 1
1 1 1 1 0 0 0 0 0 0 0 0 0 0 0 0 0 0 0 1 1 1 1 1 1 0 0 0 -0 0 -0 -0 -0 0 1 1 1 1 1 1 1 1 1
1 0 0 0 0 0 -0 -0 -0 -0 -0 -0 -0 -0 -0 -0 -0 -0 0 0 0 0 0 0 0 -0 -0 -0 -0 -0 -0 -0 -0 -0 -0 0 1 0 1 1 1 1 1
0 -0 -0 -0 -0 -0 -0 -0 -0 -1 -1 -0 -0 -0 -0 -0 -1 -1 -0 -0 -0 0 0 0 -0 -0 -0 -0 -0 -0 -0 -1 -1 -1 -1 -1 -0 -0 0 0 0 0 0
-1 -1 -1 -1 -1 -1 -1 -1 -1 -1 -1 -1 -1 -1 -1 -1 -1 -1 -1 -1 -1 -0 -0 -0 -0 -0 -1 -1 -1 -1 -1 -1 -1 -1 -1 -1 -1 -1 -0 -0 -0 -0 -0
-1 -1 -1 -1 -1 -1 -1 -1 -1 -1 -1 -1 -1 -1 -1 -1 -1 -1 -1 -1 -1 -1 -0 -0 -1 -1 -1 -1 -1 -1 -1 -1 -2 -2 -2 -2 -2 -2 -2 -1 -1 -1 -0
Wind_Speed
1 1 2 2 2 2 1 1 2 2 2 1 1 1 1 2 2 2 3 4 5 6 6 6 5 4 4 4 4 3 4 5 4 4 5 5 5 5 5 5 5 5 5
1 0 1 1 2 2 1 1 1 1 1 1 1 1 1 2 2 2 2 3 4 5 6 6 6 5 5 5 5 5 5 5 5 5 5 5 6 6 6 7 6 6 6
2 1 1 1 2 2 1 1 1 1 1 1 1 1 1 1 2 2 2 2 3 5 5 6 6 6 6 6 6 6 6 6 6 6 6 6 6 7 6 7 7 7 7
2 1 1 2 2 1 1 0 0 0 1 2 2 2 1 1 2 2 1 1 2 3 4 6 6 6 6 6 6 7 7 8 7 7 6 6 7 8 7 7 7 8 8
2 1 1 2 2 1 0 1 0 0 1 2 2 2 1 2 2 1 1 1 1 2 3 4 6 6 6 6 7 7 7 7 6 7 7 7 8 8 7 7 7 8 8
2 1 1 2 1 1 1 1 0 0 1 1 2 3 2 2 2 1 2 1 2 2 3 4 4 5 5 5 6 7 7 8 7 7 7 7 8 8 8 8 8 8 9
2 1 1 1 1 1 1 1 1 0 0 1 1 2 2 2 1 1 1 1 1 2 2 3 3 4 4 5 6 7 8 8 7 7 8 8 8 8 8 8 9 9 10
2 2 2 2 2 1 1 1 1 1 0 1 0 1 2 3 2 2 1 1 2 2 2 3 3 3 4 4 6 7 8 8 8 8 8 8 9 9 8 8 9 9 10
3 2 3 2 2 2 2 2 2 2 1 1 1 1 0 2 2 2 1 1 2 2 2 2 3 3 4 4 4 6 8 8 8 8 9 9 9 10 9 9 9 10 10
3 3 2 2 2 2 2 2 2 2 2 2 1 1 2 2 2 3 2 2 2 2 2 2 3 3 4 3 5 6 7 7 8 9 9 9 9 10 9 9 9 10 9
2 3 2 2 2 2 2 2 2 2 3 3 2 2 1 2 2 3 4 3 3 3 2 3 2 2 3 3 4 6 7 8 8 9 9 9 10 9 9 9 9 9 8
2 3 2 2 3 2 2 3 3 3 3 3 3 3 3 3 3 3 4 4 4 3 3 2 2 1 2 3 4 6 7 8 8 9 9 9 9 9 9 9 9 8 8
3 3 2 2 3 3 3 3 2 3 3 4 4 4 4 4 3 3 3 4 4 3 2 1 2 1 2 3 4 5 6 7 8 9 8 9 9 9 9 9 9 9 9
4 3 3 3 3 3 3 2 2 3 3 3 4 4 3 4 4 4 3 3 4 3 2 2 1 1 2 3 4 5 5 7 8 8 8 8 8 9 8 8 9 9 8
3 3 4 3 3 3 3 2 2 3 3 3 4 4 4 4 3 3 3 3 3 3 4 2 1 2 2 3 4 4 5 6 8 8 7 7 7 8 8 8 8 8 8
4 3 3 3 3 3 3 3 3 3 3 3 3 3 4 3 3 3 3 3 3 4 4 2 2 2 2 3 4 4 4 7 7 6 6 7 6 7 7 7 7 7 8
4 4 4 4 4 4 3 3 3 3 3 3 3 3 4 3 3 2 2 2 3 3 4 3 2 2 1 1 3 3 4 4 4 5 6 6 6 7 7 7 7 7 8
4 4 4 4 4 3 3 3 4 3 3 3 3 2 3 2 2 2 2 3 3 3 4 4 3 2 2 2 2 2 3 4 3 4 6 6 6 6 6 6 7 7 7
4 3 3 4 4 4 3 4 3 3 3 3 3 2 2 2 2 2 2 3 3 3 3 3 2 1 1 1 2 3 3 3 4 5 6 6 6 7 7 7 7 7 7
4 4 4 4 4 4 3 4 3 3 3 3 2 2 2 2 2 2 2 2 2 1 1 1 1 1 1 1 2 2 4 4 4 4 5 6 7 8 7 7 7 7 7
3 3 3 3 3 3 3 3 3 3 3 2 2 2 2 2 2 1 1 1 1 1 1 1 0 1 1 1 2 2 3 4 4 2 3 5 5 4 6 7 7 7 7
2 2 3 3 3 3 4 4 3 3 2 2 2 1 2 2 1 2 2 2 2 1 1 1 1 1 1 1 1 2 2 3 3 2 4 5 4 3 4 5 7 7 8
2 2 2 3 4 4 4 4 3 2 2 2 2 1 1 1 1 0 1 3 3 3 2 1 1 2 1 1 0 1 2 3 3 3 3 4 3 4 5 6 8 7 8
2 2 3 3 3 4 4 4 3 2 2 1 2 2 2 1 1 1 1 1 1 2 2 1 0 1 1 0 1 1 1 2 3 2 2 2 3 3 5 5 7 8 8
2 2 2 2 2 3 4 3 2 2 2 1 1 2 1 2 2 1 2 1 1 2 4 5 5 4 3 3 2 2 1 2 2 3 2 1 2 3 3 3 6 8 9
2 2 2 1 1 2 3 2 2 2 2 1 1 1 2 1 1 2 2 2 0 1 2 4 5 5 4 3 4 1 1 0 1 2 2 2 2 3 3 2 4 6 7
Wind_Direction
298 346 9 13 4 351 0 10 8 356 337 344 353 343 310 306 305 307 307 308 310 306 300 300 293 290 293 304 297 298 302 301 300 301 298 306 311 304 294 292 283 286 295
269 300 329 350 351 342 340 337 328 323 302 310 293 302 292 298 305 304 304 311 313 309 302 300 297 294 293 294 299 298 296 297 299 300 306 307 314 301 301 290 294 287 286
271 267 274 301 326 324 350 15 4 4 324 331 302 297 293 286 292 299 306 315 317 315 310 306 298 296 295 293 293 299 298 294 294 297 302 307 315 309 300 304 294 292 286
261 246 266 290 310 325 22 46 298 339 331 330 312 301 296 293 284 281 294 321 333 331 323 318 310 297 295 296 297 297 298 295 292 292 295 300 314 308 306 303 308 296 290
246 219 260 290 305 343 333 278 352 4 305 320 311 299 298 292 287 288 284 297 315 328 333 328 322 309 300 303 307 310 309 304 300 294 292 296 306 305 302 304 302 304 301
245 217 251 288 303 277 283 256 244 341 274 294 316 314 304 292 287 283 279 300 326 331 339 334 335 326 316 319 314 311 312 310 300 297 290 292 298 297 298 299 301 302 302
251 223 258 263 261 246 256 241 204 138 9 1 1 332 323 296 277 276 281 290 305 322 336 335 331 329 321 308 307 307 309 310 305 297 293 291 291 295 294 297 299 300 296
247 237 236 247 245 238 260 235 197 168 266 346 2 333 331 329 329 294 288 276 286 310 315 317 319 321 318 315 306 305 307 307 304 304 298 296 291 293 292 296 297 298 297
266 249 243 242 241 219 230 238 215 188 217 301 300 200 204 270 310 303 287 282 291 289 284 304 317 318 317 316 308 308 310 309 308 301 301 297 297 297 293 293 294 294 297
275 262 255 248 241 230 231 239 229 216 198 229 282 265 239 225 261 305 300 296 299 289 281 293 307 311 314 321 317 310 309 309 309 306 302 302 302 299 294 293 291 290 295
285 271 260 252 246 240 234 233 233 224 210 210 222 239 252 254 236 243 281 298 304 284 279 270 274 308 319 325 319 312 317 313 310 310 309 304 306 301 297 295 293 293 298
287 276 263 251 250 243 235 232 229 228 226 221 223 225 227 228 229 236 262 285 290 284 277 272 262 296 323 325 313 315 316 314 313 311 312 311 304 304 303 305 301 299 298
274 267 270 258 256 250 241 233 232 235 232 225 227 232 234 237 232 237 248 271 280 281 270 263 252 306 334 333 323 316 314 317 315 313 310 313 312 308 308 310 311 305 302
257 262 259 256 256 252 248 236 237 245 241 236 237 238 241 246 236 233 233 245 279 275 270 261 270 260 330 330 322 322 317 314 315 311 310 315 317 316 313 310 310 308 308
260 252 252 253 253 241 237 231 238 246 244 244 241 240 245 247 243 240 235 229 236 270 281 265 270 267 322 334 322 327 318 307 310 308 313 319 320 318 316 319 318 313 310
252 250 256 256 256 242 230 227 239 242 243 252 248 245 253 255 250 240 231 235 232 244 267 272 271 286 311 326 317 323 309 304 302 314 321 323 329 330 326 325 325 319 316
252 243 244 248 252 241 231 230 238 241 245 262 265 254 260 262 255 247 238 233 232 233 253 277 272 280 263 294 321 328 321 318 322 322 326 332 335 336 328 327 329 330 327
249 243 242 243 250 238 226 227 237 242 242 257 264 259 270 269 255 238 232 239 239 231 229 258 282 283 283 285 310 327 344 340 339 328 333 337 337 337 336 336 339 342 336
247 241 237 240 249 236 226 229 230 238 243 249 250 249 265 252 252 235 231 239 242 243 222 221 260 286 314 350 359 351 351 353 350 351 350 347 346 346 348 347 350 354 350
240 236 234 237 248 238 229 227 228 232 238 245 247 248 252 240 236 225 234 228 234 228 170 176 228 340 3 15 14 358 352 347 340 350 353 351 352 353 354 355 357 1 2
240 235 235 241 248 239 232 225 219 223 229 239 251 266 271 267 271 255 256 239 234 208 166 161 299 356 6 13 347 350 338 335 337 348 351 344 346 351 350 352 359 3 1
250 241 236 239 246 248 249 240 226 212 226 226 242 278 286 276 306 333 333 353 342 313 197 184 266 276 295 325 341 341 335 340 331 349 352 333 341 333 338 348 352 356 359
258 248 248 246 246 254 253 255 239 213 215 222 223 246 282 286 312 283 350 15 5 348 328 218 204 239 250 251 242 315 317 323 300 305 336 320 333 325 329 341 345 349 355
273 259 257 251 247 253 257 257 250 198 194 213 220 218 243 257 225 171 122 56 356 341 343 10 212 236 233 168 168 215 282 342 332 330 340 316 323 319 320 334 346 353 356
288 282 266 255 256 266 269 248 228 185 191 217 235 229 222 224 216 154 133 112 6 13 23 30 27 30 33 40 59 87 67 23 344 328 342 342 319 324 314 317 346 357 360
280 286 294 301 283 278 293 280 220 199 199 211 221 239 255 242 194 147 144 148 175 22 41 34 31 27 27 29 30 56 160 123 339 313 324 344 325 341 333 317 330 350 359
Height
1495 1494 1493 1493 1494 1494 1494 1494 1494 1495 1495 1495 1496 1496 1496 1497 1497 1497 1497 1498 1498 1498 1498 1498 1498 1498 1499 1499 1499 1499 1499 1499 1499 1499 1499 1499 1498 1498 1498 1497 1497 1496 1495
1492 1491 1491 1491 1491 1491 1491 1491 1492 1492 1492 1492 1493 1493 1493 1493 1494 1494 1494 1495 1495 1495 1495 1495 1495 1495 1495 1496 1496 1496 1496 1496 1496 1495 1495 1495 1495 1495 1494 1494 1493 1493 1492
1489 1488 1488 1487 1487 1488 1488 1488 1489 1489 1489 1489 1489 1490 1490 1490 1490 1491 1491 1491 1491 1491 1491 1491 1491 1491 1492 1492 1492 1492 1493 1492 1492 1492 1492 1491 1491 1491 1490 1490 1490 1489 1489
1486 1485 1485 1484 1484 1485 1485 1485 1485 1485 1486 1486 1486 1486 1486 1486 1487 1487 1488 1488 1488 1488 1488 1488 1488 1488 1488 1488 1488 1489 1489 1489 1489 1488 1488 1488 1488 1487 1486 1486 1486 1486 1485
1483 1482 1481 1481 1481 1482 1482 1482 1482 1482 1482 1482 1482 1483 1483 1483 1483 1484 1484 1485 1485 1484 1484 1484 1484 1484 1484 1484 1484 1485 1485 1485 1485 1485 1485 1484 1484 1484 1483 1482 1482 1482 1481
1479 1479 1479 1479 1479 1478 1478 1478 1479 1479 1479 1479 1479 1479 1479 1479 1480 1480 1480 1481 1481 1481 1481 1481 1481 1480 1480 1480 1480 1480 1480 1481 1481 1481 1481 1481 1480 1480 1479 1479 1478 1477 1477
1476 1476 1476 1476 1476 1476 1475 1475 1475 1475 1476 1476 1476 1475 1475 1476 1476 1476 1477 1477 1477 1477 1477 1477 1477 1476 1476 1476 1476 1476 1476 1476 1477 1477 1477 1477 1476 1476 1476 1475 1474 1473 1473
1473 1473 1473 1473 1472 1472 1472 1472 1472 1472 1473 1474 1474 1473 1472 1473 1472 1473 1473 1473 1473 1474 1474 1474 1473 1473 1472 1472 1473 1472 1473 1473 1473 1473 1473 1473 1473 1472 1472 1471 1470 1470 1469
1470 1471 1470 1470 1469 1469 1469 1470 1470 1469 1470 1471 1472 1472 1472 1470 1469 1469 1469 1469 1470 1470 1470 1470 1470 1469 1469 1469 1469 1469 1469 1469 1469 1469 1469 1469 1469 1468 1467 1467 1466 1466 1465
1467 1467 1467 1467 1466 1466 1466 1466 1467 1467 1468 1468 1469 1469 1470 1469 1469 1466 1466 1466 1466 1466 1466 1466 1466 1465 1465 1465 1465 1465 1465 1465 1465 1465 1465 1465 1464 1464 1463 1462 1462 1462 1461
1464 1464 1464 1463 1463 1463 1463 1463 1463 1464 1465 1465 1466 1466 1467 1467 1466 1465 1462 1462 1462 1462 1462 1462 1462 1462 1461 1461 1461 1461 1461 1461 1461 1461 1461 1460 1460 1460 1459 1458 1458 1457 1456
1461 1461 1460 1460 1460 1460 1460 1460 1460 1461 1461 1462 1462 1463 1463 1463 1462 1462 1460 1458 1458 1458 1459 1458 1458 1458 1458 1458 1458 1458 1458 1457 1457 1457 1457 1456 1455 1455 1454 1454 1453 1453 1452
1457 1457 1457 1456 1456 1456 1457 1457 1457 1457 1457 1458 1458 1459 1459 1458 1459 1458 1457 1456 1454 1454 1454 1454 1454 1454 1454 1454 1454 1454 1454 1453 1453 1453 1453 1452 1451 1450 1450 1449 1448 1448 1448
1453 1453 1453 1453 1453 1453 1453 1453 1453 1453 1454 1454 1454 1455 1454 1454 1454 1454 1454 1453 1451 1450 1449 1450 1450 1451 1451 1450 1450 1450 1450 1449 1449 1449 1448 1448 1446 1445 1445 1444 1444 1443 1443
1450 1450 1450 1449 1449 1449 1450 1450 1450 1449 1450 1450 1450 1450 1450 1450 1450 1450 1450 1450 1450 1447 1445 1445 1446 1446 1446 1447 1447 1446 1446 1445 1445 1445 1444 1443 1442 1441 1440 1440 1439 1439 1438
1446 1446 1446 1445 1446 1446 1446 1446 1446 1446 1446 1446 1446 1445 1445 1445 1445 1445 1445 1446 1446 1445 1443 1441 1441 1442 1442 1443 1443 1443 1442 1442 1441 1440 1440 1439 1438 1437 1436 1435 1435 1434 1434
1442 1442 1442 1442 1442 1442 1442 1442 1442 1442 1442 1441 1441 1441 1441 1440 1440 1440 1441 1441 1441 1441 1440 1438 1439 1439 1439 1439 1439 1439 1438 1438 1437 1437 1436 1435 1434 1433 1432 1431 1430 1429 1429
1438 1438 1438 1438 1438 1438 1438 1438 1438 1438 1438 1437 1437 1437 1437 1436 1436 1436 1437 1437 1437 1437 1437 1435 1435 1435 1435 1436 1435 1435 1434 1434 1434 1433 1432 1431 1430 1429 1428 1426 1425 1424 1424
1434 1434 1434 1434 1434 1435 1435 1435 1435 1435 1434 1434 1434 1434 1433 1433 1433 1433 1433 1433 1433 1433 1433 1432 1432 1432 1432 1432 1432 1432 1432 1431 1431 1430 1429 1428 1427 1425 1424 1422 1421 1420 1420
1430 1430 1430 1431 1431 1431 1431 1431 1431 1431 1431 1431 1431 1431 1430 1430 1430 1430 1430 1430 1430 1430 1430 1429 1429 1429 1430 1430 1430 1429 1428 1428 1427 1427 1426 1425 1423 1422 1420 1419 1418 1417 1416
1426 1426 1427 1427 1427 1427 1427 1428 1428 1428 1427 1427 1427 1428 1428 1428 1428 1428 1428 1428 1428 1428 1427 1427 1427 1427 1427 1427 1427 1427 1426 1425 1425 1424 1422 1421 1420 1418 1417 1416 1415 1414 1413
1423 1423 1423 1424 1424 1424 1424 1425 1425 1425 1425 1424 1424 1425 1425 1425 1425 1425 1426 1426 1426 1426 1425 1425 1425 1424 1424 1425 1425 1425 1424 1423 1421 1422 1420 1418 1418 1416 1415 1414 1412 1411 1410
1420 1420 1420 1420 1420 1421 1421 1422 1422 1422 1422 1422 1422 1422 1422 1422 1422 1422 1422 1423 1423 1424 1424 1424 1422 1422 1422 1423 1423 1423 1423 1422 1421 1420 1418 1415 1415 1413 1413 1411 1410 1409 1407
1417 1417 1417 1417 1417 1417 1418 1419 1419 1419 1419 1419 1419 1420 1420 1419 1420 1420 1420 1421 1421 1421 1421 1421 1421 1420 1421 1421 1422 1421 1421 1420 1419 1418 1417 1414 1412 1411 1410 1408 1407 1406 1405
1415 1415 1414 1414 1414 1414 1415 1415 1416 1416 1416 1416 1417 1417 1417 1417 1417 1418 1418 1418 1418 1419 1419 1419 1419 1419 1419 1420 1419 1419 1418 1417 1416 1415 1415 1413 1410 1408 1407 1406 1405 1404 1403
1413 1412 1412 1412 1411 1412 1412 1412 1413 1413 1413 1413 1413 1414 1415 1415 1415 1416 1416 1416 1416 1416 1416 1417 1417 1417 1417 1417 1417 1417 1416 1415 1414 1413 1412 1411 1409 1407 1405 1404 1403 1402 1400